Weather in Hamamatsu

Japan     34°45′06″N   137°44′19″E
temp.,
°C
wind,
m/s
gust,
m/s
humid.,
%
clouds,
%
prec.,
mm/h
press.,
hPa
HPBL,
m
29 november, mon
mon2900:00+7n23434 0.0 103290
03:00+7nnw114532 0.0 103143
06:00+6n2252100 0.0 103158
09:00+10nnw124940 0.0 1031193
12:00+14w24325 0.0 1029810
15:00+14w353687 0.0 1028934
18:00+12wnw234474 0.0 1028104
21:00+9nnw244961 0.0 1028107
30 november, tue
tue3000:00+8nnw23435 0.0 102887
03:00+8n23433 0.0 102759
06:00+8n225449 0.0 102546
09:00+10nne1156100 0.0 102556
12:00+12ne2357100 0.0 1023114
15:00+15e3560100 0.1 1020360
18:00+15ese4865100 0.1 1017276
21:00+15ese41080100 1.5 1015373
1 december, wed
wed100:00+17s91582100 3.4 10101166
03:00+16ssw91891100 15.1 10061324
06:00+14w81482100 13.4 10061154
09:00+11wnw914715 13.7 10071150
12:00+12wnw1016432 0.0 10071877
15:00+10nw1017445 0.0 10082053
18:00+7wnw918450 0.0 10112049
21:00+6wnw916505 0.0 10121650
2 december, thu
thu200:00+5wnw815554 0.0 10131375
03:00+5wnw816575 0.0 10151360
06:00+4wnw511705 0.0 1017813
09:00+7wnw714582 0.0 10181165
12:00+11nw710380 0.0 10161102
15:00+11wnw56420 0.0 1016781
18:00+8wnw47590 0.0 1020393
21:00+7nw37621 0.0 1022276
3 december, fri
fri300:00+6nnw37605 0.0 1020178
03:00+6nw24615 0.0 1020128
06:00+5nnw35633 0.0 1020106
09:00+9nw49511 0.0 1021410
12:00+13wnw69390 0.0 10171131
15:00+13wnw69410 0.0 10161053
18:00+10w410530 0.0 1016696
21:00+9wnw410600 0.0 1017515